Авторизация  

   

Свежие обсуждения  

   
Wait a minute, while we are rendering the calendar
   
   

Комментарии блогов  

Josef Vilka Побег. Трехлетняя история.
13 ноября 2017
Благодарю.
Проходимец Побег. Трехлетняя история.
02 ноября 2017
Все правильно сделал...
Josef Vilka Жизнь или кошелек? Размышления о деньгах...
07 мая 2017
Мне нравится, что до конца - практически никто не дочитывает....
Josef Vilka Мой опыт съемки в клипе Христини Соловій - "Хто, як не ти?"
29 апреля 2017
Да, было интересно - и наблюдать, и участвовать... https://www.youtube.com/watch?v=mrAKU8OnRPo
Josef Vilka Выводим русские символы на MAX7219 модуль бегущей строки Ардуино
18 апреля 2017
Леонид, посмотрите вот здесь http://rc-rls.com.ua/index.php?option=com_easyblog&view=entry&id=60&Ite...
   

Пользователи on-line  

   
   
× Обсуждаем полеты по камере "от первого лица" - FPV

Преобразование файла с координатами в картинку трека на карте

15 апр 2015 13:29 - 15 апр 2015 13:33 #7233 от sphere_kev
sphere_kev создал эту тему: Преобразование файла с координатами в картинку трека на карте
Итак, имеем задачу:

На входе - имеем текстовый файл с координатами типа

$GPRMC,152229.000,A,4949.8683,N,02400.9929,E,0.00, 0,090415,,,A*7E,
$GPRMC,152259.000,A,4949.8683,N,02400.9929,E,0.00, 0,090415,,,A*79,
$GPRMC,152329.000,A,4949.8683,N,02400.9929,E,0.00, 0,090415,,,A*7F,
$GPRMC,152359.000,A,4949.8859,N,02401.0176,E,3.55, 316.89,090415,,,A*63,
$GPRMC,152429.000,A,4949.8890,N,02401.0131,E,0.00, 0,090415,,,A*7D,
$GPRMC,152500.000,A,4949.9357,N,02401.0969,E,0.67, 347.80,090415,,,A*64,
$GPRMC,152527.000,A,4949.9202,N,02401.1113,E,15.29 ,182.38,090415,,,A*52,
$GPRMC,152557.000,A,4949.7158,N,02401.1178,E,28.53 ,151.36,090415,,,A*59,
$GPRMC,152627.000,A,4949.5570,N,02401.1546,E,23.57 ,125.05,090415,,,A*54,
$GPRMC,152658.000,A,4949.3547,N,02401.2400,E,33.92 ,181.92,090415,,,A*56,
$GPRMC,152728.000,A,4949.2042,N,02401.2157,E,0.00, 0,090415,,,A*70,
$GPRMC,152758.000,A,4949.0596,N,02401.2068,E,39.01 ,184.10,090415,,,A*5D,
$GPRMC,152828.000,A,4948.9185,N,02401.1915,E,9.46, 181.72,090415,,,A*6A,
$GPRMC,152859.000,A,4948.7423,N,02401.1777,E,24.86 ,183.03,090415,,,A*56,
$GPRMC,152929.000,A,4948.5210,N,02401.1524,E,7.39, 188.51,090415,,,A*69,
$GPRMC,152959.000,A,4948.4515,N,02401.1455,E,20.71 ,181.26,090415,,,A*5A,
$GPRMC,153026.000,A,4948.2844,N,02401.1190,E,29.70 ,189.39,090415,,,A*57,
$GPRMC,153056.000,A,4948.1783,N,02401.0949,E,0.00, 0,090415,,,A*72,
$GPRMC,153127.000,A,4948.1783,N,02401.0949,E,0.00, 0,090415,,,A*75,
$GPRMC,153157.000,A,4948.0536,N,02401.0583,E,22.97 ,187.78,090415,,,A*54,
$GPRMC,153227.000,A,4947.8454,N,02401.0135,E,27.82 ,187.87,090415,,,A*5A,
$GPRMC,153257.000,A,4947.6047,N,02400.9613,E,28.28 ,187.59,090415,,,A*52,
$GPRMC,153328.000,A,4947.3616,N,02400.9090,E,15.45 ,187.48,090415,,,A*54,
$GPRMC,153358.000,A,4947.2363,N,02400.8805,E,26.81 ,188.36,090415,,,A*5E,
$GPRMC,153428.000,A,4947.0529,N,02400.8440,E,7.06, 183.80,090415,,,A*63,
$GPRMC,153458.000,A,4946.9434,N,02400.8338,E,25.08 ,182.26,090415,,,A*5A,
$GPRMC,153525.000,A,4946.6982,N,02400.8348,E,37.03 ,179.06,090415,,,A*57,
$GPRMC,153556.000,A,4946.4555,N,02400.8336,E,9.85, 216.69,090415,,,A*6E,
$GPRMC,153626.000,A,4946.4550,N,02400.7211,E,9.01, 273.99,090415,,,A*64,
$GPRMC,153658.000,V,4946.4550,N,02400.6079,E,4.59, 251.43,090415,,,E*68,
$GPRMC,153731.000,V,4946.4550,N,02400.6079,E,4.59, 251.43,090415,,,E*68,
$GPRMC,153801.000,V,4946.4550,N,02400.6079,E,4.59, 251.43,090415,,,E*68,
$GPRMC,153831.000,V,4946.4550,N,02400.6079,E,4.59, 251.43,090415,,,E*68,
$GPRMC,153901.000,V,4946.4550,N,02400.6079,E,4.59, 251.43,090415,,,E*68,
$GPRMC,153931.000,V,4946.4550,N,02400.6079,E,4.59, 251.43,090415,,,E*68,
$GPRMC,154001.000,V,4946.4550,N,02400.6079,E,4.59, 251.43,090415,,,E*68,
$GPRMC,154030.000,V,4946.4601,N,02400.5793,E,0,0,0 90415,,,N*7E,
$GPRMC,154058.000,V,4946.4130,N,02400.5923,E,4.99, 187.92,090415,,,E*66,
$GPRMC,154126.000,A,4946.4287,N,02400.5875,E,4.29, 323.88,090415,,,A*60,
$GPRMC,154156.000,A,4946.4607,N,02400.5962,E,0.00, 0,090415,,,A*7F,
$GPRMC,154226.000,A,4946.4593,N,02400.5974,E,2.34, 61.69,090415,,,A*51,
$GPRMC,154257.000,A,4946.4533,N,02400.5973,E,0.00, 0,090415,,,A*79,

Файл получен с помощью трекера(записывает трекер на карту памяти, установленную в него)

А на выходе - получаем картинку трека и желательно - на гуглокарте(или на любой другой)...

РЕШЕНИЕ Подсказано ребятами с Моделки.
Идем по ссылке www.gpsvisualizer.com/map_input?form=google

Вставляем тхт - файл и нажимаем кнопку "Draw the map"
И получаем картинку...

Даже трекер зафиксировал мои передвижения по Ашану

Там же на странице можно выбрать другие варианты вывода координат - в картинку, в ПОгуглЗемля...

..! You Can Make World Better !..

Вложения:
Последнее редактирование: 15 апр 2015 13:33 от sphere_kev.

Пожалуйста Войти , чтобы присоединиться к беседе.

  • sphere_kev
  • sphere_kev аватар Автор темы
  • Не в сети
  • Модератор
  • Модератор
  • Небесный тихоход
Больше
02 мая 2015 14:44 #7241 от sphere_kev
sphere_kev ответил в теме Преобразование файла с координатами в картинку трека на карте
Можно на указанном выше сервисе сохранить файл в виде проекции на гуглокарты и потом открывать его и детально изучать.
Приложенный файл - пример моей поездки в Киев и возвращения во Львов. Туда ехал поездом, а обратно - машиной. Путь был проделан за 2 дня и красным - это первые сутки, а в 00:00 - все в том же поезде начались вторые сутки и трек пошел писаться в другой файл - синяя полоска.
На обратном пути я поздно проверил, что сел аккумулятор и заменил его довольно поздно, поэтому обратная дорога во Львов - синим по автотрассе - не с самого начала...
Что примечательно - трекер привязывался к координатам даже под железной крышей вагона...
Из неприятных или непонятных вещей - он раз 20 - отправлял мне на второй телефон сигнал СОС. Почему - еще не разбирался я...

Это вложение скрыто для гостей.
Пожалуйста, зарегистрируйтесь или войдите, чтобы увидеть его.


..! You Can Make World Better !..

Это сообщение содержит прикрепленные файлы.
Пожалуйста, войдите или зарегистрируйтесь, чтобы увидеть их.

Пожалуйста Войти , чтобы присоединиться к беседе.

  • sphere_kev
  • sphere_kev аватар Автор темы
  • Не в сети
  • Модератор
  • Модератор
  • Небесный тихоход
Больше
26 сен 2015 22:26 - 26 сен 2015 23:16 #7283 от sphere_kev
sphere_kev ответил в теме Преобразование файла с координатами в картинку трека на карте
Были координаты записаны вот таким трекером..

..! You Can Make World Better !..

Последнее редактирование: 26 сен 2015 23:16 от sphere_kev.

Пожалуйста Войти , чтобы присоединиться к беседе.

  • sphere_kev
  • sphere_kev аватар Автор темы
  • Не в сети
  • Модератор
  • Модератор
  • Небесный тихоход
Больше
Время создания страницы: 0.332 секунд
Работает на Kunena форум